UAL1182 VHHH-VVDN

Flight info

Callsign UAL1182
Flight time 1h 34m
Altitude 40000
Route PECAN1Y PECAN V11 IDOSI P901 IKELA/K0854F400 A1 KANGU DCT
Aircraft A339/H-SDE3FGHIRWY/S

Departure

Time 2026-05-05 07:54
Airport Hong Kong International Airport (VHHH)

Arrival

Time 2026-05-05 09:28
Airport Da Nang International Airport (VVDN)
Time Latitude Longitude Altitude Speed Heading
2026-05-05 07:25 22.31210 113.91782 44 ft 0 kts 251°
2026-05-05 07:40 22.31210 113.91783 44 ft 1 kts 251°
2026-05-05 07:41 22.31218 113.91807 44 ft 3 kts 251°
2026-05-05 07:41 22.31227 113.91832 44 ft 3 kts 240°
2026-05-05 07:41 22.31243 113.91844 44 ft 2 kts 192°
2026-05-05 07:41 22.31253 113.91845 44 ft 0 kts 176°
2026-05-05 07:42 22.31251 113.91846 44 ft 1 kts 173°
2026-05-05 07:43 22.31236 113.91849 44 ft 3 kts 162°
2026-05-05 07:43 22.31209 113.91863 44 ft 5 kts 150°
2026-05-05 07:43 22.31171 113.91888 44 ft 7 kts 148°
2026-05-05 07:43 22.31121 113.91915 44 ft 8 kts 157°
2026-05-05 07:44 22.31066 113.91951 44 ft 8 kts 128°
2026-05-05 07:44 22.31049 113.92015 44 ft 8 kts 114°
2026-05-05 07:44 22.31004 113.92049 44 ft 8 kts 155°
2026-05-05 07:44 22.30942 113.92077 44 ft 10 kts 159°
2026-05-05 07:45 22.30869 113.92106 44 ft 11 kts 160°
2026-05-05 07:45 22.30787 113.92134 44 ft 13 kts 164°
2026-05-05 07:45 22.30699 113.92158 44 ft 12 kts 182°
2026-05-05 07:45 22.30642 113.92105 44 ft 11 kts 244°
2026-05-05 07:46 22.30616 113.92021 44 ft 12 kts 253°
2026-05-05 07:46 22.30587 113.91930 44 ft 13 kts 250°
2026-05-05 07:46 22.30555 113.91830 44 ft 14 kts 251°
2026-05-05 07:46 22.30520 113.91722 44 ft 15 kts 250°
2026-05-05 07:47 22.30484 113.91610 44 ft 16 kts 251°
2026-05-05 07:47 22.30446 113.91491 44 ft 17 kts 251°
2026-05-05 07:47 22.30406 113.91368 44 ft 17 kts 251°
2026-05-05 07:47 22.30365 113.91241 44 ft 18 kts 251°
2026-05-05 07:48 22.30323 113.91110 44 ft 18 kts 251°
2026-05-05 07:48 22.30280 113.90978 44 ft 18 kts 251°
2026-05-05 07:48 22.30238 113.90844 44 ft 19 kts 251°
2026-05-05 07:48 22.30193 113.90708 44 ft 19 kts 251°
2026-05-05 07:49 22.30150 113.90572 44 ft 19 kts 250°
2026-05-05 07:49 22.30104 113.90434 44 ft 19 kts 250°
2026-05-05 07:49 22.30059 113.90295 44 ft 19 kts 251°
2026-05-05 07:49 22.30015 113.90153 44 ft 19 kts 251°
2026-05-05 07:50 22.29972 113.90020 44 ft 19 kts 251°
2026-05-05 07:50 22.29929 113.89888 44 ft 18 kts 251°
2026-05-05 07:50 22.29894 113.89781 44 ft 10 kts 244°
2026-05-05 07:50 22.29847 113.89745 44 ft 8 kts 191°
2026-05-05 07:51 22.29802 113.89748 44 ft 0 kts 167°
2026-05-05 07:51 22.29797 113.89748 44 ft 1 kts 167°
2026-05-05 07:52 22.29793 113.89750 44 ft 1 kts 167°
2026-05-05 07:52 22.29775 113.89754 44 ft 4 kts 166°
2026-05-05 07:52 22.29719 113.89774 44 ft 11 kts 161°
2026-05-05 07:52 22.29669 113.89794 44 ft 0 kts 149°
2026-05-05 07:53 22.29657 113.89803 44 ft 3 kts 140°
2026-05-05 07:53 22.29643 113.89830 44 ft 5 kts 105°
2026-05-05 07:53 22.29645 113.89880 44 ft 11 kts 77°
2026-05-05 07:54 22.29748 113.90198 44 ft 78 kts 71°
2026-05-05 07:54 22.29997 113.90965 44 ft 135 kts 72°
2026-05-05 07:54 22.30361 113.92072 165 ft 170 kts 71°
2026-05-05 07:54 22.30728 113.93256 859 ft 164 kts 71°
2026-05-05 07:55 22.31089 113.94381 1585 ft 159 kts 71°
2026-05-05 07:55 22.31469 113.95549 2021 ft 174 kts 72°
2026-05-05 07:55 22.31885 113.96838 2435 ft 191 kts 73°
2026-05-05 07:55 22.32340 113.98251 2863 ft 209 kts 73°
2026-05-05 07:56 22.32841 113.99818 3309 ft 227 kts 73°
2026-05-05 07:56 22.33363 114.01450 3889 ft 237 kts 72°
2026-05-05 07:56 22.33825 114.03177 4588 ft 241 kts 85°
2026-05-05 07:56 22.33717 114.04964 5201 ft 241 kts 108°
2026-05-05 07:57 22.32988 114.06591 5745 ft 243 kts 130°
2026-05-05 07:57 22.31762 114.07816 6285 ft 245 kts 150°
2026-05-05 07:57 22.30172 114.08588 6729 ft 252 kts 169°
2026-05-05 07:57 22.28436 114.08787 7257 ft 255 kts 183°
2026-05-05 07:58 22.26599 114.08701 7592 ft 270 kts 186°
2026-05-05 07:58 22.24683 114.08559 8082 ft 279 kts 187°
2026-05-05 07:58 22.22722 114.08415 8733 ft 282 kts 187°
2026-05-05 07:58 22.20775 114.08281 9370 ft 285 kts 187°
2026-05-05 07:59 22.18771 114.08147 10010 ft 288 kts 187°
2026-05-05 07:59 22.16739 114.08012 10477 ft 298 kts 187°
2026-05-05 07:59 22.14624 114.07873 10760 ft 314 kts 187°
2026-05-05 07:59 22.12359 114.07724 11049 ft 331 kts 187°
2026-05-05 08:00 22.09994 114.07574 11476 ft 342 kts 187°
2026-05-05 08:00 22.07597 114.07426 12104 ft 346 kts 187°
2026-05-05 08:00 22.05184 114.07280 12756 ft 349 kts 187°
2026-05-05 08:00 22.02745 114.07130 13390 ft 353 kts 187°
2026-05-05 08:01 22.00310 114.06979 13993 ft 356 kts 187°
2026-05-05 08:01 21.97816 114.06825 14582 ft 360 kts 187°
2026-05-05 08:01 21.95300 114.06671 15176 ft 363 kts 188°
2026-05-05 08:01 21.92760 114.06512 15744 ft 367 kts 188°
2026-05-05 08:02 21.90188 114.06353 16302 ft 370 kts 188°
2026-05-05 08:02 21.87598 114.06193 16847 ft 374 kts 188°
2026-05-05 08:02 21.84995 114.06032 17377 ft 377 kts 188°
2026-05-05 08:02 21.82338 114.05867 17920 ft 380 kts 188°
2026-05-05 08:03 21.79684 114.05703 18442 ft 383 kts 188°
2026-05-05 08:03 21.77037 114.05538 18934 ft 387 kts 188°
2026-05-05 08:03 21.74314 114.05369 19443 ft 390 kts 188°
2026-05-05 08:03 21.71609 114.05203 19942 ft 393 kts 188°
2026-05-05 08:04 21.68843 114.05032 20428 ft 397 kts 188°
2026-05-05 08:04 21.66060 114.04860 20918 ft 399 kts 188°
2026-05-05 08:04 21.63280 114.04688 21380 ft 402 kts 188°
2026-05-05 08:04 21.60495 114.04517 21823 ft 405 kts 188°
2026-05-05 08:05 21.57641 114.04342 22269 ft 408 kts 188°
2026-05-05 08:05 21.54808 114.04168 22702 ft 411 kts 188°
2026-05-05 08:05 21.51950 114.03992 23128 ft 414 kts 188°
2026-05-05 08:05 21.49039 114.03813 23570 ft 417 kts 188°
2026-05-05 08:06 21.46149 114.03636 24012 ft 419 kts 188°
2026-05-05 08:06 21.43209 114.03455 24446 ft 422 kts 188°
2026-05-05 08:06 21.40287 114.03262 24873 ft 424 kts 189°
2026-05-05 08:06 21.37315 114.03061 25294 ft 427 kts 189°
2026-05-05 08:07 21.34361 114.02860 25705 ft 429 kts 189°
2026-05-05 08:07 21.31350 114.02657 26107 ft 431 kts 189°
2026-05-05 08:07 21.28358 114.02455 26496 ft 434 kts 189°
2026-05-05 08:07 21.25333 114.02253 26866 ft 437 kts 189°
2026-05-05 08:08 21.22268 114.02048 27249 ft 439 kts 189°
2026-05-05 08:08 21.19230 114.01845 27615 ft 442 kts 189°
2026-05-05 08:08 21.16140 114.01639 28003 ft 444 kts 189°
2026-05-05 08:08 21.13034 114.01432 28384 ft 446 kts 189°
2026-05-05 08:09 21.09938 114.01225 28748 ft 448 kts 189°
2026-05-05 08:09 21.06798 114.01015 29089 ft 450 kts 189°
2026-05-05 08:09 21.03686 114.00806 29420 ft 453 kts 189°
2026-05-05 08:09 21.00510 114.00569 29743 ft 454 kts 192°
2026-05-05 08:10 20.97423 114.00025 30045 ft 451 kts 198°
2026-05-05 08:10 20.94394 113.99091 30376 ft 449 kts 205°
2026-05-05 08:10 20.91520 113.97804 30687 ft 446 kts 211°
2026-05-05 08:10 20.88825 113.96184 30988 ft 445 kts 218°
2026-05-05 08:11 20.86279 113.94277 31295 ft 444 kts 220°
2026-05-05 08:11 20.83798 113.92326 31577 ft 447 kts 221°
2026-05-05 08:11 20.81300 113.90348 31865 ft 449 kts 221°
2026-05-05 08:11 20.78755 113.88334 32195 ft 451 kts 221°
2026-05-05 08:12 20.76265 113.86366 32616 ft 450 kts 221°
2026-05-05 08:12 20.73747 113.84382 33091 ft 448 kts 221°
2026-05-05 08:12 20.71250 113.82415 33559 ft 446 kts 221°
2026-05-05 08:12 20.68761 113.80457 33992 ft 445 kts 221°
2026-05-05 08:13 20.66271 113.78499 34407 ft 445 kts 221°
2026-05-05 08:13 20.63761 113.76527 34812 ft 444 kts 221°
2026-05-05 08:13 20.61284 113.74581 35193 ft 443 kts 221°
2026-05-05 08:13 20.58795 113.72626 35548 ft 443 kts 221°
2026-05-05 08:14 20.56327 113.70690 35869 ft 443 kts 221°
2026-05-05 08:14 20.53835 113.68736 36191 ft 443 kts 221°
2026-05-05 08:14 20.51356 113.66793 36498 ft 443 kts 221°
2026-05-05 08:14 20.48867 113.64841 36791 ft 443 kts 221°
2026-05-05 08:15 20.46374 113.62888 37091 ft 443 kts 221°
2026-05-05 08:15 20.43880 113.60934 37374 ft 443 kts 221°
2026-05-05 08:15 20.41393 113.58987 37670 ft 443 kts 221°
2026-05-05 08:15 20.38922 113.57053 37964 ft 442 kts 221°
2026-05-05 08:16 20.36446 113.55118 38209 ft 442 kts 221°
2026-05-05 08:16 20.33951 113.53166 38390 ft 444 kts 221°
2026-05-05 08:16 20.31487 113.51241 38563 ft 446 kts 221°
2026-05-05 08:16 20.28951 113.49258 38725 ft 448 kts 221°
2026-05-05 08:17 20.26436 113.47293 38900 ft 449 kts 221°
2026-05-05 08:17 20.23916 113.45326 39090 ft 450 kts 221°
2026-05-05 08:17 20.21403 113.43365 39274 ft 451 kts 221°
2026-05-05 08:17 20.18858 113.41379 39451 ft 453 kts 221°
2026-05-05 08:18 20.16320 113.39401 39597 ft 454 kts 221°
2026-05-05 08:18 20.13772 113.37416 39764 ft 455 kts 221°
2026-05-05 08:18 20.11210 113.35420 39898 ft 456 kts 221°
2026-05-05 08:18 20.08668 113.33441 39909 ft 457 kts 220°
2026-05-05 08:19 20.03536 113.29449 39898 ft 457 kts 220°
2026-05-05 08:19 19.98391 113.25451 39897 ft 457 kts 220°
2026-05-05 08:20 19.93266 113.21470 39893 ft 457 kts 220°
2026-05-05 08:20 19.88119 113.17473 39889 ft 458 kts 220°
2026-05-05 08:21 19.82960 113.13470 39888 ft 459 kts 220°
2026-05-05 08:21 19.77803 113.09474 39886 ft 459 kts 220°
2026-05-05 08:22 19.72638 113.05476 39888 ft 459 kts 220°
2026-05-05 08:22 19.67457 113.01467 39886 ft 460 kts 220°
2026-05-05 08:23 19.62302 112.97482 39886 ft 460 kts 220°
2026-05-05 08:23 19.57131 112.93487 39884 ft 460 kts 220°
2026-05-05 08:24 19.51945 112.89484 39886 ft 460 kts 220°
2026-05-05 08:24 19.46768 112.85491 39886 ft 460 kts 220°
2026-05-05 08:25 19.41605 112.81511 39886 ft 460 kts 220°
2026-05-05 08:25 19.36429 112.77523 39882 ft 461 kts 220°
2026-05-05 08:26 19.31225 112.73519 39881 ft 461 kts 220°
2026-05-05 08:26 19.25987 112.69561 39876 ft 462 kts 219°
2026-05-05 08:27 19.20744 112.65623 39877 ft 463 kts 219°
2026-05-05 08:27 19.15499 112.61678 39878 ft 463 kts 219°
2026-05-05 08:28 19.10268 112.57742 39872 ft 463 kts 219°
2026-05-05 08:28 19.05018 112.53793 39861 ft 462 kts 219°
2026-05-05 08:29 18.99777 112.49856 39856 ft 462 kts 219°
2026-05-05 08:30 18.91906 112.43917 39856 ft 463 kts 219°
2026-05-05 08:30 18.86683 112.39974 39856 ft 464 kts 219°
2026-05-05 08:31 18.81410 112.35998 39855 ft 464 kts 219°
2026-05-05 08:31 18.76158 112.32040 39850 ft 464 kts 219°
2026-05-05 08:32 18.71037 112.27953 39850 ft 461 kts 224°
2026-05-05 08:32 18.66368 112.23320 39850 ft 458 kts 230°
2026-05-05 08:33 18.62258 112.18201 39849 ft 455 kts 236°
2026-05-05 08:33 18.58697 112.12756 39851 ft 453 kts 239°
2026-05-05 08:34 18.55207 112.07225 39849 ft 453 kts 239°
2026-05-05 08:34 18.51711 112.01688 39851 ft 454 kts 239°
2026-05-05 08:35 18.48213 111.96162 39850 ft 454 kts 239°
2026-05-05 08:35 18.44716 111.90648 39854 ft 454 kts 239°
2026-05-05 08:36 18.41192 111.85094 39850 ft 455 kts 239°
2026-05-05 08:36 18.37686 111.79576 39855 ft 454 kts 239°
2026-05-05 08:37 18.34183 111.74064 39854 ft 454 kts 239°
2026-05-05 08:37 18.30679 111.68552 39857 ft 454 kts 239°
2026-05-05 08:38 18.27157 111.63023 39863 ft 453 kts 239°
2026-05-05 08:38 18.23653 111.57523 39870 ft 454 kts 239°
2026-05-05 08:39 18.20144 111.52022 39871 ft 454 kts 239°
2026-05-05 08:39 18.16616 111.46496 39868 ft 455 kts 239°
2026-05-05 08:40 18.13100 111.40992 39875 ft 456 kts 239°
2026-05-05 08:40 18.09573 111.35477 39870 ft 455 kts 239°
2026-05-05 08:41 18.06031 111.29943 39871 ft 455 kts 239°
2026-05-05 08:41 18.02504 111.24436 39865 ft 454 kts 239°
2026-05-05 08:42 17.98968 111.18921 39854 ft 454 kts 239°
2026-05-05 08:42 17.95458 111.13451 39849 ft 454 kts 239°
2026-05-05 08:43 17.91915 111.07931 39848 ft 455 kts 239°
2026-05-05 08:43 17.88386 111.02439 39851 ft 456 kts 239°
2026-05-05 08:44 17.84825 110.96903 39847 ft 456 kts 239°
2026-05-05 08:44 17.81295 110.91417 39847 ft 455 kts 239°
2026-05-05 08:45 17.77763 110.85937 39848 ft 455 kts 239°
2026-05-05 08:45 17.74218 110.80441 39845 ft 455 kts 239°
2026-05-05 08:46 17.70666 110.74937 39849 ft 455 kts 239°
2026-05-05 08:46 17.67131 110.69461 39847 ft 455 kts 239°
2026-05-05 08:47 17.63606 110.64006 39846 ft 454 kts 239°
2026-05-05 08:47 17.60059 110.58523 39848 ft 454 kts 239°
2026-05-05 08:48 17.56536 110.53082 39847 ft 453 kts 239°
2026-05-05 08:48 17.52990 110.47610 39847 ft 453 kts 239°
2026-05-05 08:49 17.49451 110.42150 39530 ft 455 kts 239°
2026-05-05 08:49 17.47667 110.39399 39152 ft 453 kts 239°
2026-05-05 08:49 17.45903 110.36682 38718 ft 449 kts 239°
2026-05-05 08:49 17.44157 110.33993 38233 ft 445 kts 239°
2026-05-05 08:50 17.42427 110.31329 37762 ft 442 kts 239°
2026-05-05 08:50 17.40717 110.28688 37293 ft 443 kts 239°
2026-05-05 08:50 17.38985 110.25984 36820 ft 444 kts 239°
2026-05-05 08:50 17.37273 110.23308 36350 ft 445 kts 239°
2026-05-05 08:51 17.35548 110.20611 35880 ft 446 kts 239°
2026-05-05 08:51 17.33820 110.17909 35413 ft 447 kts 239°
2026-05-05 08:51 17.32100 110.15224 34948 ft 448 kts 239°
2026-05-05 08:51 17.30372 110.12525 34485 ft 449 kts 239°
2026-05-05 08:52 17.28627 110.09804 34020 ft 450 kts 239°
2026-05-05 08:52 17.26877 110.07076 33560 ft 451 kts 239°
2026-05-05 08:52 17.25128 110.04348 33097 ft 453 kts 239°
2026-05-05 08:52 17.23376 110.01617 32643 ft 454 kts 239°
2026-05-05 08:53 17.21600 109.98853 32227 ft 456 kts 238°
2026-05-05 08:53 17.19845 109.96121 31819 ft 457 kts 238°
2026-05-05 08:53 17.18074 109.93366 31408 ft 455 kts 238°
2026-05-05 08:53 17.16320 109.90640 30997 ft 451 kts 238°
2026-05-05 08:54 17.14582 109.87940 30591 ft 449 kts 238°
2026-05-05 08:54 17.12833 109.85220 30183 ft 447 kts 238°
2026-05-05 08:54 17.11109 109.82543 29777 ft 445 kts 238°
2026-05-05 08:54 17.09389 109.79872 29371 ft 443 kts 238°
2026-05-05 08:55 17.07682 109.77220 28969 ft 441 kts 238°
2026-05-05 08:55 17.05960 109.74546 28562 ft 438 kts 238°
2026-05-05 08:55 17.04270 109.71925 28172 ft 436 kts 238°
2026-05-05 08:55 17.02570 109.69289 27777 ft 433 kts 238°
2026-05-05 08:56 17.00915 109.66723 27390 ft 431 kts 238°
2026-05-05 08:56 16.99223 109.64105 26995 ft 429 kts 238°
2026-05-05 08:56 16.97573 109.61549 26606 ft 426 kts 238°
2026-05-05 08:56 16.95910 109.58974 26213 ft 424 kts 238°
2026-05-05 08:57 16.94277 109.56445 25826 ft 422 kts 238°
2026-05-05 08:57 16.92647 109.53924 25438 ft 420 kts 238°
2026-05-05 08:57 16.91011 109.51392 25046 ft 417 kts 238°
2026-05-05 08:57 16.89389 109.48884 24657 ft 415 kts 238°
2026-05-05 08:58 16.87788 109.46408 24270 ft 413 kts 238°
2026-05-05 08:58 16.86176 109.43916 23879 ft 410 kts 238°
2026-05-05 08:58 16.84592 109.41470 23497 ft 408 kts 238°
2026-05-05 08:58 16.83000 109.39012 23111 ft 406 kts 237°
2026-05-05 08:59 16.81425 109.36599 22734 ft 403 kts 237°
2026-05-05 08:59 16.79848 109.34188 22358 ft 401 kts 237°
2026-05-05 08:59 16.78287 109.31802 21988 ft 399 kts 237°
2026-05-05 08:59 16.76716 109.29401 21618 ft 396 kts 237°
2026-05-05 09:00 16.75177 109.27047 21253 ft 394 kts 237°
2026-05-05 09:00 16.73625 109.24675 20881 ft 393 kts 237°
2026-05-05 09:00 16.72098 109.22342 20517 ft 391 kts 237°
2026-05-05 09:00 16.70560 109.19994 20148 ft 389 kts 237°
2026-05-05 09:01 16.69046 109.17680 19781 ft 387 kts 237°
2026-05-05 09:01 16.67527 109.15359 19412 ft 386 kts 237°
2026-05-05 09:01 16.66031 109.13077 19043 ft 384 kts 237°
2026-05-05 09:01 16.64512 109.10761 18670 ft 382 kts 237°
2026-05-05 09:02 16.63032 109.08501 18304 ft 380 kts 237°
2026-05-05 09:02 16.61535 109.06219 17932 ft 377 kts 237°
2026-05-05 09:02 16.60059 109.03967 17561 ft 375 kts 237°
2026-05-05 09:02 16.58602 109.01746 17192 ft 372 kts 237°
2026-05-05 09:03 16.57133 108.99508 16816 ft 370 kts 237°
2026-05-05 09:03 16.55676 108.97289 16439 ft 368 kts 237°
2026-05-05 09:03 16.54244 108.95107 16066 ft 367 kts 236°
2026-05-05 09:03 16.52811 108.92926 15693 ft 365 kts 237°
2026-05-05 09:04 16.51374 108.90740 15315 ft 363 kts 236°
2026-05-05 09:04 16.49955 108.88581 14938 ft 362 kts 236°
2026-05-05 09:04 16.48541 108.86430 14562 ft 360 kts 237°
2026-05-05 09:04 16.47124 108.84276 14188 ft 358 kts 237°
2026-05-05 09:05 16.45733 108.82159 13811 ft 357 kts 237°
2026-05-05 09:05 16.44322 108.80016 13434 ft 356 kts 237°
2026-05-05 09:05 16.42935 108.77908 13048 ft 354 kts 237°
2026-05-05 09:05 16.41535 108.75781 12666 ft 352 kts 237°
2026-05-05 09:06 16.40158 108.73690 12300 ft 351 kts 237°
2026-05-05 09:06 16.38790 108.71614 11952 ft 348 kts 237°
2026-05-05 09:06 16.37414 108.69524 11857 ft 346 kts 236°
2026-05-05 09:06 16.36054 108.67461 11851 ft 349 kts 236°
2026-05-05 09:07 16.34710 108.65343 11855 ft 349 kts 238°
2026-05-05 09:07 16.33418 108.63232 11851 ft 349 kts 238°
2026-05-05 09:07 16.32114 108.61092 11860 ft 350 kts 238°
2026-05-05 09:07 16.30795 108.58929 11858 ft 350 kts 238°
2026-05-05 09:08 16.29501 108.56809 11843 ft 344 kts 239°
2026-05-05 09:08 16.28245 108.54755 11842 ft 330 kts 238°
2026-05-05 09:08 16.27016 108.52763 11843 ft 317 kts 236°
2026-05-05 09:08 16.25473 108.51235 11827 ft 306 kts 208°
2026-05-05 09:09 16.23456 108.50646 11598 ft 303 kts 182°
2026-05-05 09:09 16.21336 108.50696 11235 ft 304 kts 178°
2026-05-05 09:09 16.19218 108.50770 10907 ft 304 kts 179°
2026-05-05 09:09 16.17100 108.50829 10615 ft 303 kts 179°
2026-05-05 09:10 16.14982 108.50877 10355 ft 303 kts 179°
2026-05-05 09:10 16.12875 108.50918 10039 ft 301 kts 179°
2026-05-05 09:10 16.10780 108.50954 9738 ft 299 kts 179°
2026-05-05 09:10 16.08692 108.50988 9443 ft 298 kts 180°
2026-05-05 09:11 16.06604 108.51019 9159 ft 296 kts 179°
2026-05-05 09:11 16.04549 108.51050 8875 ft 294 kts 179°
2026-05-05 09:11 16.02510 108.51080 8583 ft 293 kts 179°
2026-05-05 09:11 16.00454 108.51111 8298 ft 291 kts 179°
2026-05-05 09:12 15.98442 108.51141 8023 ft 289 kts 179°
2026-05-05 09:12 15.96422 108.51170 7744 ft 288 kts 179°
2026-05-05 09:12 15.94406 108.51199 7457 ft 287 kts 179°
2026-05-05 09:12 15.92398 108.51229 7172 ft 287 kts 179°
2026-05-05 09:13 15.90410 108.51258 6874 ft 283 kts 179°
2026-05-05 09:13 15.88428 108.51268 6864 ft 284 kts 180°
2026-05-05 09:13 15.86443 108.51271 6889 ft 285 kts 180°
2026-05-05 09:13 15.84473 108.51192 6926 ft 285 kts 192°
2026-05-05 09:14 15.82717 108.50279 6941 ft 284 kts 225°
2026-05-05 09:14 15.81649 108.48574 6945 ft 283 kts 253°
2026-05-05 09:14 15.81324 108.46570 6960 ft 283 kts 264°
2026-05-05 09:14 15.81098 108.44531 6804 ft 282 kts 264°
2026-05-05 09:15 15.80857 108.42530 6576 ft 281 kts 263°
2026-05-05 09:15 15.80599 108.40506 6356 ft 277 kts 262°
2026-05-05 09:15 15.80196 108.38595 6067 ft 267 kts 244°
2026-05-05 09:15 15.79061 108.37109 5852 ft 264 kts 216°
2026-05-05 09:16 15.77398 108.36328 5635 ft 264 kts 189°
2026-05-05 09:16 15.75571 108.36352 5428 ft 265 kts 171°
2026-05-05 09:16 15.73727 108.36638 5243 ft 265 kts 171°
2026-05-05 09:16 15.71878 108.36929 5049 ft 265 kts 171°
2026-05-05 09:17 15.70060 108.37206 4857 ft 265 kts 171°
2026-05-05 09:17 15.68214 108.37479 4697 ft 264 kts 171°
2026-05-05 09:17 15.66369 108.37660 4572 ft 266 kts 184°
2026-05-05 09:17 15.64635 108.37093 4387 ft 256 kts 213°
2026-05-05 09:18 15.63408 108.35859 4262 ft 243 kts 239°
2026-05-05 09:18 15.62786 108.34216 4146 ft 243 kts 261°
2026-05-05 09:18 15.62550 108.32496 4042 ft 243 kts 264°
2026-05-05 09:18 15.62358 108.30751 3932 ft 242 kts 264°
2026-05-05 09:19 15.62233 108.29006 3799 ft 242 kts 278°
2026-05-05 09:19 15.62764 108.27371 3672 ft 239 kts 306°
2026-05-05 09:19 15.63907 108.26196 3552 ft 229 kts 332°
2026-05-05 09:19 15.65365 108.25650 3446 ft 218 kts 352°
2026-05-05 09:20 15.66877 108.25427 3338 ft 216 kts 354°
2026-05-05 09:20 15.68342 108.25234 3153 ft 206 kts 354°
2026-05-05 09:20 15.69727 108.25046 3023 ft 192 kts 354°
2026-05-05 09:20 15.71016 108.24867 2892 ft 180 kts 354°
2026-05-05 09:21 15.72247 108.24698 2779 ft 178 kts 354°
2026-05-05 09:21 15.73476 108.24528 2660 ft 178 kts 354°
2026-05-05 09:21 15.74721 108.24352 2586 ft 177 kts 354°
2026-05-05 09:21 15.75947 108.24178 2586 ft 178 kts 354°
2026-05-05 09:22 15.77176 108.24000 2586 ft 177 kts 354°
2026-05-05 09:22 15.78419 108.23817 2585 ft 177 kts 354°
2026-05-05 09:22 15.79620 108.23639 2579 ft 169 kts 354°
2026-05-05 09:22 15.80738 108.23473 2560 ft 155 kts 355°
2026-05-05 09:23 15.81820 108.23315 2577 ft 156 kts 355°
2026-05-05 09:23 15.82898 108.23158 2584 ft 155 kts 355°
2026-05-05 09:23 15.83982 108.23000 2583 ft 156 kts 355°
2026-05-05 09:23 15.85053 108.22845 2581 ft 156 kts 355°
2026-05-05 09:24 15.86143 108.22687 2576 ft 156 kts 354°
2026-05-05 09:24 15.87218 108.22531 2575 ft 156 kts 354°
2026-05-05 09:24 15.88308 108.22372 2576 ft 156 kts 354°
2026-05-05 09:24 15.89385 108.22216 2559 ft 157 kts 354°
2026-05-05 09:25 15.90476 108.22057 2379 ft 156 kts 354°
2026-05-05 09:25 15.91551 108.21901 2185 ft 154 kts 355°
2026-05-05 09:25 15.92616 108.21746 1994 ft 154 kts 355°
2026-05-05 09:25 15.93689 108.21589 1798 ft 154 kts 355°
2026-05-05 09:26 15.94752 108.21425 1606 ft 152 kts 355°
2026-05-05 09:26 15.95797 108.21262 1412 ft 150 kts 356°
2026-05-05 09:26 15.96842 108.21149 1214 ft 148 kts 355°
2026-05-05 09:26 15.97855 108.20991 1024 ft 147 kts 353°
2026-05-05 09:27 15.98866 108.20814 833 ft 145 kts 358°
2026-05-05 09:27 15.99865 108.20723 649 ft 143 kts 355°
2026-05-05 09:27 16.00848 108.20555 468 ft 141 kts 354°
2026-05-05 09:27 16.01824 108.20415 274 ft 139 kts 355°
2026-05-05 09:28 16.02766 108.20261 130 ft 134 kts 357°
2026-05-05 09:28 16.03655 108.20158 64 ft 116 kts 352°
2026-05-05 09:28 16.04277 108.20059 65 ft 62 kts 348°
2026-05-05 09:28 16.04555 108.20019 64 ft 29 kts 353°
2026-05-05 09:29 16.04752 108.19987 62 ft 26 kts 349°
2026-05-05 09:29 16.04889 108.20002 61 ft 15 kts 51°
2026-05-05 09:29 16.04926 108.20077 60 ft 7 kts 38°
2026-05-05 09:29 16.04973 108.20094 60 ft 6 kts
2026-05-05 09:30 16.05027 108.20087 59 ft 9 kts 353°
2026-05-05 09:30 16.05098 108.20077 58 ft 11 kts 351°
2026-05-05 09:30 16.05179 108.20065 57 ft 11 kts 352°
2026-05-05 09:30 16.05245 108.20055 56 ft 6 kts 352°
2026-05-05 09:31 16.05297 108.20048 56 ft 8 kts 352°
2026-05-05 09:31 16.05364 108.20038 55 ft 10 kts 350°
2026-05-05 09:31 16.05441 108.20026 55 ft 10 kts
2026-05-05 09:31 16.05481 108.20074 52 ft 5 kts 93°
2026-05-05 09:32 16.05484 108.20111 51 ft 5 kts 79°
2026-05-05 09:32 16.05489 108.20145 50 ft 4 kts 81°
2026-05-05 09:32 16.05490 108.20150 50 ft 0 kts 81°